Regional Weather Roundup
Issued by NWS Portland, ME

Current Version | Previous Version | Text Only | Print | Product List | Glossary On
Versions: 1 2 3 4 5 6 7 8 9 10 11 12 13 14 15 16 17 18 19 20 21 22 23 24 25 26 27 28 29 30 31 32 33 34 35 36 37 38 39 40 41 42 43 44 45 46 47 48 49 50
000
ASUS41 KGYX 220710
RWRGYX
WEATHER ROUNDUP FOR MAINE AND NEW HAMPSHIRE
NATIONAL WEATHER SERVICE GRAY ME
300 AM EDT SUN MAY 22 2022

MEZ002-005-006-010-012-015-018-020-021-024-026-027-029-220800-
MAINE

CITY           SKY/WX    TMP DP  RH WIND       PRES   REMARKS
PORTLAND       FOG       53  53 100 E8        30.01F VSB 1/2
SANFORD        LGT RAIN  58  58 100 E6        30.01F VSB 3/4
BAR HARBOR     FOG       53  53 100 CALM      30.03F VSB 1/4
WISCASSET      FOG       55  54  96 SE3       30.02F VSB 3/4
ROCKLAND       FOG       51  51 100 E3        30.03F VSB 1/2
FRYEBURG       MOCLDY    57  56  96 CALM      30.01F FOG
LEWISTONAUBURN FOG       58  58 100 SE5       30.00F VSB 1/2
AUGUSTA        FOG       60  59  96 S7        30.00F VSB 1/4
WATERVILLE     FOG       60  60 100 SW3       29.98F VSB 1/2
BANGOR         FOG       58  58 100 S5        30.01F VSB 1/4
GREENVILLE       N/A     59  59 100 E5        29.99F
MILLINOCKET    CLOUDY    62  61  96 CALM      29.99F
HOULTON        FOG       60  59  96 S5        29.97R VSB 1
PRESQUE ISLE   CLOUDY    60  60 100 SE5       29.98R
FRENCHVILLE    FOG       61  60  97 S5        29.94R VSB 1/4
CARIBOU        CLOUDY    60  59  96 S5        29.96R FOG
$$

NHZ002-005-008-009-011-012-014-220800-
NEW HAMPSHIRE

CITY           SKY/WX    TMP DP  RH WIND       PRES   REMARKS
PORTSMOUTH     FOG       56  56 100 CALM      30.01F VSB 5/8
ROCHESTER      FOG       60  59  96 E5        30.00F VSB 1/2
NASHUA         CLEAR     65  65 100 CALM      29.99S
MANCHESTER     CLEAR     64  61  90 E3        29.97F
CONCORD        PTCLDY    62  61  96 CALM      29.99S
LACONIA        PTCLDY    62  32  32 CALM      30.00F
BERLIN         FOG       64  63  96 CALM      30.00F VSB 1/4
WHITEFIELD     FOG       63  63 100 CALM      30.00R VSB 1/4
JAFFREY        PTCLDY    66  64  93 CALM      30.02F FOG
KEENE          PTCLDY    66  65  96 CALM      29.99F FOG
LEBANON        MOCLDY    66  62  87 CALM      29.96F FOG
MT WASHINGTON  FOG       55  55 100 SW36        N/A  VSB 0
$$

VTZ005-007-008-220800-
VERMONT

CITY           SKY/WX    TMP DP  RH WIND       PRES   REMARKS
ST JOHNSBURY     N/A     66  62  87 MISG      29.97R
MONTPELIER     MOCLDY    68  65  90 NW3G16    30.04R FOG
BURLINGTON     CLOUDY    68  66  93 E7        29.97F
$$

MAZ007-012-024-CTZ003-RIZ002-NYZ038-NYZ072-220800-
SOUTHERN NEW ENGLAND AND NY

CITY           SKY/WX    TMP DP  RH WIND       PRES   REMARKS
BOSTON         CLEAR     69  64  84 VRB3      29.99F
WORCESTER      CLEAR     72  64  76 W10       30.02F
NANTUCKET      CLEAR     56  55  97 SW3       30.04F FOG
PROVIDENCE     CLEAR     65  62  90 S6        30.00F
HARTFORD       PTCLDY    70  65  84 SW5       29.99F
ALBANY         PTCLDY    72  65  78 VRB3      29.98F
NEW YORK CITY  PTCLDY    79  64  60 SW8       30.00F
$$

ANZ081-ANZ082-ANZ150-NHZ014-MEZ023>029-220800-
COASTAL MARINE OBSERVATIONS

STATION/POSITION TIME  TEMP    WIND        PRES    WAVE
                       AIR SEA DIR/SP/G            HT/PER
                 (UTC) (F)     (DEG/KT/KT) (MB)    (FT/S)
MOUNT DESERT ROC 0700   49     120/ 10/ 10 1016.8F
MATINICUS ROCK   0600   50     130/ 10/ 10 1017.8R
ISLE OF SHOALS   0600   53      50/  9/ 10 1015.7F
JEFFREYS LEDGE   0626      53                N/A     3/ 8
CASHES LEDGE BUO 0650   49 50   70/  8/ 10 1016.7S   4/ 7
GEORGES BANK BUO 0650      50              1019.9R   5/ 9
$$

.............KEY..............
   WCI - WIND CHILL
   TC  - TEMPERATURE IN CELSIUS
   VSB - VISIBILITY IN MILES
   HX  - HEAT INDEX
   FAIR- INDICATES FEW OR NO CLOUDS BELOW 12,000 FT, WITH NO
         SIGNIFICANT WEATHER AND/OR OBSTRUCTIONS TO VISIBILITY.





USA.gov is the U.S. government's official web portal to all federal, state and local government web resources and services.